Dewpoint
-6 -6 -5 -3 -1 -1 -3 -3 -2 -3 -3 -3 -3 -2 -2 -4 -5 -4 -5 -1 -1 -3 -5 -4 -4 -4 -4 -5 -5 -4 -5 -5 -5 -6 -6 -6 -4 -3 -2 -5 -5 -4 -4 -5 -6 -7 -3 -6 -7 -5 -6 -7 -7 -8
-6 -5 -5 -4 -1 -2 -3 -3 -3 -3 -3 -3 -3 -2 -2 -2 -4 -5 -5 -3 -2 -2 -3 -4 -5 -5 -4 -3 -4 -5 -5 -4 -5 -6 -6 -6 -3 -4 -3 -4 -6 -5 -5 -5 -4 -4 -7 -8 -7 -8 -7 -7 -6 -6
-8 -6 -6 -4 -2 -2 -3 -4 -2 -2 -3 -3 -3 -3 -3 -2 -3 -4 -5 -3 -2 -2 -2 -3 -5 -6 -5 -4 -4 -4 -4 -4 -3 -3 -3 -6 -4 -5 -3 -4 -5 -7 -6 -5 -5 -7 -7 -8 -8 -6 -5 -4 -4 -3
-8 -7 -6 -4 -2 -2 -3 -4 -2 -2 -3 -3 -3 -3 -3 -3 -3 -3 -3 -2 -3 -3 -5 -7 -6 -6 -6 -6 -5 -4 -4 -3 -3 -3 -2 -6 -4 -5 -4 -5 -4 -5 -6 -5 -5 -6 -7 -7 -6 -5 -4 -3 -3 -4
-8 -7 -6 -5 -2 -2 -2 -3 -2 -2 -2 -3 -3 -3 -3 -3 -3 -2 -4 -3 -3 -4 -5 -4 -6 -6 -5 -6 -5 -4 -4 -4 -4 -3 -3 -2 -3 -4 -6 -5 -4 -7 -6 -4 -4 -8 -6 -5 -5 -3 -2 -3 -3 -3
-6 -7 -7 -4 -2 -2 -2 -3 -2 -2 -2 -3 -4 -4 -3 -3 -3 -3 -3 -4 -3 -3 -5 -7 -6 -6 -5 -6 -7 -4 -4 -4 -4 -4 -3 -4 -4 -5 -7 -3 -5 -8 -7 -7 -6 -6 -7 -5 -2 -3 -3 -3 -3 -3
-6 -6 -5 -4 -2 -2 -2 -2 -2 -3 -2 -3 -4 -3 -3 -3 -3 -4 -6 -6 -5 -3 -6 -5 -5 -5 -5 -5 -6 -4 -4 -3 -4 -3 -2 -4 -5 -4 -6 -3 -7 -9 -8 -9 -9 -7 -4 -4 -4 -4 -4 -4 -4 -4
-7 -5 -5 -2 -1 -2 -2 -2 -3 -3 -3 -3 -3 -3 -4 -4 -3 -5 -3 -3 -3 -5 -5 -6 -4 -4 -6 -4 -3 -4 -4 -3 -2 -3 -3 -4 -4 -5 -5 -6 -7 -8 -8 -8 -4 -4 -5 -5 -6 -6 -5 -4 -4 -4
-4 -5 -4 -2 -1 -2 -2 -2 -3 -3 -3 -3 -3 -4 -4 -4 -4 -4 -3 -3 -3 -4 -5 -5 -4 -4 -3 -3 -3 -3 -4 -3 -4 -4 -5 -5 -6 -4 -5 -6 -7 -9 -6 -2 -3 -5 -6 -7 -5 -5 -5 -4 -3 -3
-5 -5 -3 -2 -2 -2 -2 -3 -3 -3 -3 -3 -4 -4 -4 -5 -4 -5 -3 -3 -3 -3 -6 -5 -5 -4 -3 -2 -3 -3 -3 -5 -3 -4 -5 -6 -4 -7 -8 -9 -10 -10 -6 -4 -3 -4 -7 -5 -4 -3 -3 -3 -3 -3
-5 -3 -2 -2 -2 -2 -3 -3 -3 -3 -3 -4 -4 -5 -4 -4 -4 -5 -4 -5 -5 -4 -5 -5 -6 -5 -3 -3 -3 -3 -2 -3 -2 -3 -4 -2 -1 -3 -5 -6 -7 -8 -3 -3 -4 -5 -4 -4 -6 -6 -4 -3 -3 -4
-4 -2 -2 -2 -2 -3 -3 -4 -3 -3 -4 -5 -5 -3 -4 -6 -5 -5 -6 -5 -5 -6 -6 -5 -6 -7 -6 -3 -3 -2 -1 -2 -1 -4 -2 -0 -3 -1 -2 -5 -6 -5 -3 -4 -5 -4 -5 -6 -4 -5 -4 -3 -4 -4
-2 -2 -2 -2 -3 -3 -4 -4 -3 -5 -6 -6 -5 -5 -7 -6 -5 -5 -5 -5 -4 -6 -7 -6 -5 -8 -7 -4 -3 -4 -3 -3 -4 -2 -2 -3 -0 -0 -1 -1 -1 -1 -2 -4 -4 -4 -5 -5 -5 -4 -4 -4 -3 -4
-2 -2 -2 -3 -3 -4 -4 -3 -4 -6 -8 -8 -6 -5 -4 -5 -5 -5 -6 -5 -7 -8 -6 -6 -7 -5 -3 -3 -4 -4 -4 -4 -4 -3 -2 0 0 0 0 -0 -0 -1 -2 -3 -4 -3 -4 -5 -5 -6 -4 -4 -4 -4
-2 -3 -3 -3 -5 -4 -3 -3 -5 -6 -8 -7 -7 -6 -5 -6 -7 -7 -9 -7 -6 -7 -5 -5 -3 -4 -3 -4 -3 -3 -2 -3 -2 -3 -0 -1 -1 -2 -2 -2 -4 -5 -4 -3 -3 -6 -7 -7 -6 -5 -5 -5 -4 -5
-3 -3 -4 -4 -4 -3 -4 -4 -4 -6 -7 -7 -7 -5 -6 -6 -5 -4 -3 -1 -2 -4 -4 -4 -2 -2 -2 -2 -1 -3 -2 -2 -0 -2 -2 -3 -3 -3 -4 -5 -7 -8 -6 -6 -7 -8 -10 -10 -9 -7 -5 -4 -5 -5
-3 -3 -4 -3 -3 -4 -4 -5 -5 -7 -6 -6 -6 -6 -6 -7 -6 -6 -4 -3 -2 -1 -1 -1 -1 -2 -1 -1 -1 -2 -2 -2 -2 -3 -4 -4 -4 -6 -8 -8 -8 -8 -9 -9 -10 -10 -12 -11 -11 -10 -7 -5 -4 -5
-3 -3 -3 -4 -4 -4 -5 -6 -6 -7 -6 -6 -6 -7 -5 -5 -5 -9 -10 -7 -4 -3 -2 -1 -2 -3 -3 -3 -1 -4 -2 -2 -3 -4 -5 -7 -8 -8 -8 -9 -9 -10 -10 -11 -12 -13 -9 -7 -6 -5 -6 -5 -4 -4
-3 -3 -4 -4 -5 -6 -6 -6 -8 -7 -7 -8 -6 -6 -6 -6 -6 -6 -6 -5 -6 -7 -4 -4 -3 -2 -3 -4 -4 -3 -2 -3 -3 -5 -8 -8 -8 -9 -9 -10 -11 -13 -11 -9 -7 -8 -8 -8 -8 -6 -6 -4 -3 -5
-4 -4 -5 -5 -7 -6 -5 -6 -5 -6 -7 -7 -6 -7 -7 -7 -8 -8 -8 -7 -8 -8 -9 -7 -4 -8 -8 -7 -7 -6 -5 -5 -7 -8 -8 -8 -9 -11 -14 -11 -8 -8 -8 -9 -10 -11 -9 -9 -9 -8 -9 -7 -5 -5
-5 -5 -5 -6 -7 -6 -6 -6 -8 -5 -6 -6 -7 -9 -9 -7 -8 -8 -8 -8 -8 -8 -6 -10 -11 -9 -8 -7 -6 -6 -8 -8 -9 -9 -10 -12 -11 -9 -9 -9 -10 -10 -10 -9 -9 -10 -12 -12 -10 -7 -5 -5 -5 -5
-5 -5 -6 -7 -7 -7 -6 -6 -8 -8 -9 -7 -9 -11 -10 -8 -8 -8 -8 -8 -8 -9 -10 -11 -10 -9 -9 -8 -8 -9 -9 -10 -11 -11 -10 -9 -10 -10 -11 -11 -11 -11 -11 -13 -12 -11 -12 -12 -12 -11 -9 -7 -7 -5
-6 -6 -7 -7 -7 -7 -6 -8 -10 -12 -8 -8 -10 -9 -8 -9 -10 -10 -9 -10 -10 -10 -10 -10 -9 -10 -10 -10 -10 -11 -10 -10 -10 -10 -10 -10 -11 -11 -11 -12 -14 -14 -14 -14 -11 -12 -13 -13 -12 -11 -9 -8 -8 -8
-7 -7 -7 -6 -8 -8 -7 -8 -11 -12 -11 -9 -9 -10 -9 -11 -10 -11 -9 -12 -11 -10 -10 -10 -10 -10 -11 -11 -11 -10 -10 -10 -11 -11 -11 -11 -12 -14 -15 -16 -16 -15 -14 -14 -13 -13 -13 -12 -12 -12 -10 -8 -7 -6
-8 -7 -8 -8 -9 -10 -9 -9 -8 -9 -9 -9 -11 -10 -10 -14 -10 -10 -10 -8 -9 -9 -9 -10 -10 -11 -10 -9 -10 -10 -10 -11 -12 -12 -12 -13 -15 -16 -17 -17 -17 -17 -15 -14 -12 -12 -12 -12 -12 -12 -12 -10 -8 -7
-10 -10 -11 -11 -11 -10 -9 -10 -10 -10 -10 -11 -10 -12 -14 -13 -14 -13 -8 -7 -8 -9 -9 -10 -10 -10 -10 -10 -10 -10 -11 -12 -13 -16 -18 -17 -16 -14 -14 -13 -14 -18 -14 -13 -11 -11 -12 -13 -12 -12 -12 -12 -10 -8
-11 -12 -10 -11 -13 -13 -11 -12 -12 -12 -14 -14 -12 -14 -14 -15 -15 -10 -7 -7 -7 -7 -7 -7 -8 -10 -10 -10 -11 -11 -11 -13 -14 -16 -17 -17 -16 -16 -15 -14 -14 -14 -15 -14 -13 -13 -13 -12 -12 -12 -11 -11 -11 -9
-12 -12 -11 -11 -12 -13 -13 -13 -14 -14 -13 -12 -12 -15 -14 -15 -11 -8 -9 -9 -9 -10 -10 -11 -13 -13 -13 -13 -13 -13 -14 -14 -14 -15 -16 -17 -18 -18 -16 -15 -14 -14 -14 -13 -13 -12 -12 -12 -12 -12 -12 -12 -11 -9
-12 -11 -12 -13 -12 -11 -12 -14 -14 -10 -10 -12 -15 -14 -10 -8 -9 -12 -12 -13 -13 -13 -12 -11 -11 -10 -10 -12 -12 -12 -13 -14 -15 -16 -16 -17 -19 -18 -16 -15 -14 -13 -13 -12 -12 -11 -11 -12 -12 -11 -11 -11 -11 -8
-11 -13 -11 -13 -16 -14 -9 -10 -10 -11 -11 -11 -11 -10 -10 -9 -9 -10 -12 -13 -12 -12 -11 -10 -11 -12 -13 -13 -14 -16 -15 -17 -16 -15 -15 -16 -18 -17 -15 -14 -14 -13 -12 -11 -11 -11 -11 -11 -11 -10 -10 -9 -9 -7
-9 -11 -10 -11 -14 -9 -10 -12 -13 -13 -13 -13 -11 -10 -9 -9 -10 -10 -10 -10 -11 -11 -11 -12 -12 -12 -12 -14 -16 -19 -19 -17 -18 -18 -17 -17 -15 -14 -14 -13 -12 -11 -11 -11 -11 -11 -11 -11 -10 -10 -9 -8 -7 -7
-12 -11 -15 -16 -12 -9 -10 -11 -11 -11 -11 -11 -10 -10 -9 -10 -11 -11 -11 -12 -12 -13 -12 -12 -12 -14 -16 -19 -20 -17 -17 -19 -19 -18 -17 -15 -14 -13 -13 -12 -11 -10 -11 -11 -10 -10 -10 -10 -10 -10 -9 -8 -7 -6
-13 -14 -14 -15 -15 -13 -11 -12 -13 -14 -12 -10 -10 -10 -10 -11 -11 -12 -12 -13 -13 -14 -14 -15 -15 -18 -21 -22 -21 -20 -20 -19 -19 -17 -15 -14 -14 -13 -12 -11 -10 -10 -9 -8 -8 -8 -9 -9 -9 -8 -7 -7 -7 -6
Wind_Speed
35 38 44 24 50 47 43 42 40 38 37 34 33 37 32 31 30 29 32 20 19 9 6 6 6 6 4 5 4 3 3 2 3 3 3 3 3 3 2 3 1 2 3 3 2 2 5 8 7 2 6 17 22 27
36 38 41 31 46 48 43 43 40 37 37 35 33 37 34 30 29 28 27 27 19 12 5 11 16 17 15 11 6 4 3 3 6 3 0 2 1 1 2 2 4 2 4 3 6 5 7 19 9 23 25 23 28 26
38 35 41 37 42 49 45 44 41 38 37 36 34 38 34 30 28 28 24 26 19 14 16 22 24 17 18 22 18 7 4 4 5 5 5 2 1 3 2 4 2 3 2 2 4 3 4 22 23 21 18 21 18 23
39 36 40 39 39 50 46 44 41 39 36 36 35 37 34 32 28 27 25 20 20 6 3 6 7 9 13 14 19 25 13 7 5 4 3 2 2 5 3 4 4 6 3 4 4 11 16 8 18 16 23 16 10 8
37 37 40 40 41 50 47 43 42 40 38 34 35 36 35 31 28 27 24 23 22 11 3 5 8 10 14 13 14 14 18 22 13 4 2 3 3 1 3 1 8 10 7 4 5 11 8 16 20 16 9 7 10 15
39 37 42 36 50 52 47 45 42 38 36 36 33 35 35 32 30 26 11 27 24 18 1 2 3 5 10 15 13 14 16 13 13 8 4 4 6 5 1 3 8 16 17 17 10 14 23 18 15 8 7 12 16 18
39 36 42 26 52 51 48 45 42 39 36 35 32 34 32 31 27 26 8 5 32 19 4 3 4 2 13 12 14 14 17 11 9 6 5 5 6 10 2 5 5 11 13 17 23 15 12 7 3 9 12 16 18 19
34 37 36 31 54 52 47 46 43 40 36 36 33 32 30 27 25 15 6 10 31 16 5 2 3 2 13 6 6 8 8 9 7 5 3 4 4 5 4 14 14 22 19 17 3 2 5 3 7 10 11 15 19 23
35 35 34 47 53 51 46 44 43 41 40 37 34 32 30 30 21 13 15 26 24 7 7 4 3 3 14 5 6 5 6 2 5 4 4 5 2 5 11 13 16 14 8 1 5 4 4 7 9 12 13 15 20 21
33 34 36 57 53 50 47 45 45 43 44 41 42 24 7 25 23 22 13 7 9 7 4 3 5 3 11 5 3 5 4 3 2 6 7 3 4 29 29 26 21 11 12 11 8 6 5 6 9 13 14 16 15 20
35 34 50 58 53 52 51 49 48 47 51 42 12 6 31 31 22 5 6 5 6 3 8 9 18 4 10 4 3 7 3 3 2 4 5 3 3 6 12 16 21 19 14 9 9 5 4 7 10 16 15 14 17 20
28 51 55 51 53 55 53 52 53 52 35 21 24 37 30 10 5 5 4 5 5 5 8 8 10 18 7 6 3 7 4 4 5 11 3 3 3 2 4 3 14 14 16 9 4 2 3 8 13 17 18 16 18 19
52 57 54 55 56 55 54 56 57 44 39 47 26 9 10 6 4 8 9 4 4 7 12 14 5 11 6 6 4 3 3 4 8 1 3 2 5 12 15 20 20 15 5 4 2 3 8 12 16 15 15 17 17 19
56 57 55 56 55 54 56 61 52 48 45 7 6 6 6 5 6 5 8 5 8 12 24 24 11 7 5 3 3 3 4 1 2 2 3 2 6 13 13 16 12 10 4 2 2 6 12 17 19 22 16 14 18 19
53 53 54 54 54 57 61 59 49 40 11 5 7 5 6 6 7 14 19 7 8 18 28 15 6 5 2 2 3 3 3 4 4 3 2 9 15 16 16 15 12 9 7 5 5 10 15 18 21 24 22 14 14 17
52 52 51 51 56 60 59 46 38 25 4 4 3 3 3 5 1 9 15 13 13 25 24 8 3 4 4 3 5 6 4 4 3 3 13 17 15 12 9 7 4 5 5 7 10 14 18 22 22 22 22 23 18 15
48 41 49 57 64 56 48 42 22 5 4 4 1 3 1 8 7 9 15 12 20 19 3 3 7 5 3 3 4 2 3 3 14 17 13 9 7 6 4 4 3 3 7 12 16 19 25 25 22 21 21 21 17 17
39 54 61 64 55 46 33 20 6 5 4 2 3 6 7 10 14 11 8 12 10 10 8 1 2 3 3 4 3 2 6 16 13 11 11 7 3 2 1 4 7 11 15 18 21 21 18 20 21 22 18 17 18 17
56 57 58 53 48 29 7 5 6 4 3 6 5 13 11 13 12 10 11 10 8 9 15 7 1 1 2 1 6 11 15 15 16 12 8 4 3 3 7 12 17 18 15 12 14 18 18 19 20 19 19 20 20 17
51 48 50 40 29 10 5 6 6 5 3 5 10 11 9 8 9 9 9 9 9 6 2 3 2 7 10 14 14 15 15 15 14 10 8 7 6 10 11 9 9 9 13 17 20 21 19 20 18 19 20 20 24 20
45 43 39 32 19 7 6 5 5 5 6 5 15 10 5 11 9 6 4 5 3 0 1 3 8 10 11 15 14 15 15 13 11 8 6 7 7 6 4 9 14 16 18 19 20 23 25 24 23 20 19 19 23 22
38 37 31 18 7 5 6 5 9 8 3 10 11 6 4 4 5 8 5 5 4 5 6 5 6 13 16 14 12 9 8 6 4 4 6 5 7 12 14 15 17 19 20 21 20 20 23 25 24 22 22 23 25 21
34 24 9 7 6 5 3 6 4 3 3 4 7 3 1 3 8 10 3 5 5 6 7 9 10 10 10 11 8 5 4 4 5 6 8 10 11 13 15 17 19 21 22 23 22 24 25 26 24 22 21 22 23 21
22 6 4 3 3 2 3 2 4 5 4 3 3 2 3 4 10 3 2 3 3 9 12 16 16 16 13 9 7 5 4 5 7 8 10 12 15 18 19 20 20 20 22 23 22 21 22 24 25 24 22 20 21 19
7 3 4 3 3 4 3 2 2 3 1 1 2 1 1 4 2 1 2 2 16 18 17 14 12 9 12 10 6 5 6 8 9 12 15 16 19 20 21 22 23 21 21 20 20 23 25 26 30 31 26 22 17 19
4 2 3 5 4 4 3 3 3 3 3 2 2 3 2 3 3 2 1 7 18 16 14 11 11 9 7 6 7 8 9 12 14 16 17 16 17 19 22 23 26 27 23 23 23 26 30 33 37 36 30 24 23 20
3 1 1 3 6 8 4 4 6 4 2 4 2 2 3 3 3 2 6 11 12 9 5 3 4 6 8 8 9 10 13 15 15 16 17 18 19 20 21 22 24 25 26 28 29 31 34 36 36 32 26 22 22 21
3 3 4 3 6 6 4 3 3 3 3 5 5 2 6 7 4 5 6 7 5 4 4 5 6 7 6 7 10 12 12 14 16 18 21 23 21 21 20 21 26 29 29 30 31 31 31 32 31 29 27 26 23 20
4 7 9 5 6 5 2 3 3 2 2 3 4 2 2 3 7 10 9 5 4 4 5 4 4 5 9 11 11 12 14 16 19 23 25 28 30 30 31 34 35 34 34 34 33 31 29 27 25 24 21 21 19 16
3 5 5 3 4 1 4 5 9 11 11 10 8 8 7 7 7 6 5 6 6 5 4 6 9 10 10 13 16 16 15 16 15 17 23 29 34 36 37 38 38 37 36 36 36 32 26 21 20 17 18 18 15 13
4 4 4 3 2 4 11 9 8 7 6 6 7 9 7 7 8 8 6 5 4 6 8 7 7 9 13 16 18 20 22 18 19 21 24 29 33 36 38 38 38 38 39 38 34 29 24 19 17 17 15 16 16 15
4 3 4 3 2 7 5 3 3 2 4 4 4 7 8 6 5 7 6 5 4 6 6 7 11 13 14 15 16 17 19 22 23 25 28 31 35 37 37 39 39 40 38 35 29 23 19 18 19 20 15 15 18 23
7 10 7 4 2 2 2 3 2 1 3 4 4 8 7 7 4 6 6 5 5 5 8 9 11 13 14 14 14 16 18 21 23 24 26 29 31 33 35 36 37 36 32 22 18 16 18 19 20 18 14 20 25 22
Wind_Direction
255 262 255 257 213 207 209 214 208 212 210 208 205 196 201 204 201 204 204 201 206 213 226 192 209 199 165 160 140 142 70 322 55 86 135 225 175 246 311 284 216 204 156 216 92 74 287 14 357 29 248 290 299 305
249 246 254 248 210 204 204 208 207 205 205 204 202 196 198 199 202 204 206 207 212 217 241 244 249 246 238 224 183 181 174 159 165 96 9 92 347 355 156 271 309 261 180 199 173 221 269 311 302 311 309 307 309 308
248 246 253 244 209 200 199 205 203 201 200 200 198 195 192 196 199 206 201 200 204 224 258 260 254 249 249 240 234 191 199 201 172 133 150 173 240 139 207 241 252 288 357 221 27 286 298 301 306 315 319 325 330 331
237 237 245 241 206 197 196 198 201 195 197 194 192 190 189 193 192 195 192 192 198 168 206 263 224 216 206 215 232 229 207 155 134 149 134 143 171 197 227 242 209 212 350 249 261 288 288 299 315 311 317 325 311 307
228 229 238 235 203 193 191 194 196 191 191 189 192 189 189 188 191 194 196 197 194 195 194 285 283 233 212 212 214 212 216 223 233 170 135 212 219 259 262 322 259 209 213 180 224 250 280 291 305 331 328 335 333 332
222 222 232 236 195 189 189 191 191 187 188 185 187 187 190 188 192 186 196 211 205 201 244 330 283 230 184 208 207 197 199 212 208 175 182 222 194 185 227 245 243 243 233 241 239 272 293 290 318 325 320 326 327 331
213 217 221 235 188 186 185 189 183 184 183 178 180 182 185 188 188 176 187 196 192 181 196 301 294 214 180 179 178 182 200 201 205 183 219 209 204 201 221 247 225 248 240 276 297 295 277 290 304 301 313 325 331 331
210 208 224 200 184 182 181 181 173 179 175 172 173 174 173 178 177 178 178 170 170 161 187 172 257 178 179 139 133 169 158 178 194 203 202 198 194 210 251 248 259 256 266 273 276 229 197 262 304 313 319 329 334 339
202 203 214 186 180 175 175 169 168 171 170 166 162 158 157 168 160 152 135 157 166 167 179 183 193 211 172 133 135 139 162 141 189 197 223 168 210 224 233 240 250 259 238 189 183 221 303 331 332 338 333 332 336 342
204 210 197 176 173 170 169 165 167 166 161 152 149 147 135 160 158 157 133 139 170 216 221 217 215 207 168 137 144 123 163 199 188 222 169 175 247 250 253 248 243 251 243 215 221 241 293 317 332 338 332 326 337 337
201 196 177 170 169 167 162 164 166 162 154 147 142 115 138 146 142 156 142 156 170 205 216 213 199 166 184 140 158 194 170 180 219 204 168 217 253 250 284 255 229 224 207 249 215 220 279 316 341 341 339 329 330 334
197 171 171 166 162 159 160 165 164 153 158 144 136 129 125 139 152 147 175 176 192 215 195 167 189 193 155 153 138 175 190 169 248 142 185 236 257 115 110 188 173 181 164 155 161 188 347 343 347 346 346 329 327 329
169 169 165 161 157 158 162 164 157 149 142 132 124 139 151 171 158 185 177 178 190 194 176 153 131 162 177 173 190 157 174 226 118 191 225 230 99 104 110 116 128 131 104 70 108 28 3 354 351 344 332 328 326 325
161 161 156 154 156 160 161 160 150 145 140 127 134 138 197 181 208 186 185 174 191 177 154 149 141 143 145 145 175 143 223 124 279 207 211 121 111 110 105 121 110 102 90 76 28 2 353 353 350 344 338 334 324 326
154 152 151 154 159 161 161 157 147 151 133 121 139 174 195 201 188 203 188 177 172 171 147 148 103 119 130 148 184 183 214 231 213 200 114 117 99 97 98 94 83 76 69 51 8 351 348 345 341 339 346 327 318 323
147 148 153 157 159 158 150 149 151 145 83 112 135 122 126 113 69 141 149 132 135 146 146 136 145 146 190 173 170 201 202 206 132 103 124 117 102 92 93 87 68 27 9 351 340 336 333 331 328 325 327 335 317 322
146 149 158 159 155 145 149 139 126 93 120 113 192 194 289 165 137 130 133 126 156 143 163 177 177 178 119 186 192 155 171 144 134 131 130 119 101 82 56 57 20 348 324 320 319 319 320 319 317 319 318 320 320 322
146 153 157 153 146 143 129 134 96 75 71 139 124 138 105 117 138 154 151 154 156 155 137 124 82 209 178 177 128 192 110 138 145 149 139 128 110 99 30 325 316 315 314 315 316 321 332 336 337 338 318 313 312 316
154 152 152 150 146 130 100 101 87 132 166 162 127 145 118 114 116 129 151 159 126 129 130 140 147 200 120 127 127 139 155 160 160 151 143 143 170 267 300 304 301 308 316 320 318 322 321 319 327 332 335 318 311 312
151 141 139 138 143 102 95 114 120 96 117 152 146 145 146 166 150 135 123 137 125 119 111 119 137 159 154 160 159 155 153 154 158 165 180 199 248 289 297 298 300 309 309 309 309 317 329 322 311 319 327 321 320 319
140 141 143 140 93 81 92 118 116 103 121 123 144 128 120 145 150 148 140 158 122 110 169 133 110 124 130 143 152 154 152 165 174 192 217 268 280 266 259 291 303 311 315 317 320 320 321 320 314 321 324 322 317 304
132 139 130 100 70 75 74 60 117 124 101 137 130 115 126 143 173 199 194 177 188 185 176 192 151 148 138 141 149 162 162 169 188 222 227 238 280 293 302 313 316 316 317 321 324 321 318 320 324 316 305 310 317 311
139 131 80 62 65 59 82 98 85 89 104 143 127 108 156 166 181 167 185 201 208 221 222 227 172 171 160 147 155 161 177 188 197 236 271 288 293 300 305 307 311 314 315 316 317 315 315 317 319 316 306 298 308 312
134 79 75 79 83 111 89 67 123 113 107 144 159 178 155 157 158 115 184 180 174 184 182 163 165 152 149 158 170 179 214 254 270 276 287 295 301 304 308 309 311 310 310 311 311 313 312 315 318 316 308 312 304 300
89 54 84 52 130 102 93 68 45 67 119 154 121 40 205 129 96 138 199 71 150 147 150 153 150 156 157 157 171 209 252 276 294 304 308 313 310 306 305 307 309 311 315 316 312 313 311 313 313 312 306 290 298 299
88 143 129 169 173 113 155 110 130 160 116 61 182 187 123 84 79 239 3 137 140 151 155 158 154 157 166 194 219 249 276 288 297 299 304 307 307 310 312 312 312 312 320 315 309 305 303 305 304 305 299 287 277 281
88 268 160 150 144 128 88 105 126 96 115 166 209 78 80 112 229 238 124 143 150 159 175 205 236 219 213 231 259 276 285 293 297 299 302 303 304 307 303 300 301 307 308 303 299 297 299 299 297 298 290 288 270 269
113 115 124 81 87 80 107 83 109 166 205 176 124 128 148 169 197 150 157 158 163 181 208 213 221 238 258 278 293 297 298 302 305 306 305 301 302 305 309 308 308 309 305 301 301 301 298 294 292 289 276 268 262 256
76 121 106 44 62 59 102 146 194 77 37 123 113 118 137 102 140 140 152 162 186 208 201 223 253 274 280 285 284 291 297 304 313 314 314 313 315 315 318 316 315 312 311 308 306 304 299 293 287 279 267 259 259 256
77 92 89 58 90 119 34 77 100 91 90 92 97 107 105 123 140 164 186 203 203 216 239 253 273 280 287 297 303 303 300 304 305 310 313 311 311 313 314 313 312 310 308 307 307 303 296 285 271 255 251 247 235 240
72 79 79 85 91 84 115 108 103 107 104 107 118 138 141 148 162 184 207 223 245 255 251 254 271 287 296 301 305 308 312 319 319 316 311 308 308 309 310 311 310 311 310 306 301 295 286 271 247 236 238 235 217 212
60 52 102 57 43 127 122 83 102 114 145 159 154 151 148 151 143 185 204 225 244 247 266 284 289 295 297 298 304 302 303 308 314 317 317 315 313 314 314 313 313 312 309 304 294 280 262 244 225 216 215 213 202 201
77 80 85 90 75 97 109 111 97 88 180 194 186 194 181 171 144 177 202 229 254 277 287 295 300 305 309 310 310 312 312 315 316 316 315 315 315 316 316 316 316 314 310 296 273 253 236 216 200 197 208 204 195 183
Height
1336 1336 1339 1343 1352 1363 1374 1384 1391 1400 1408 1416 1423 1431 1439 1445 1451 1455 1461 1465 1468 1471 1471 1471 1473 1474 1476 1478 1484 1484 1488 1488 1492 1504 1509 1508 1507 1494 1490 1483 1481 1485 1499 1505 1510 1524 1501 1469 1468 1473 1471 1464 1461 1457
1326 1330 1332 1334 1341 1353 1364 1375 1383 1392 1401 1410 1417 1425 1433 1440 1446 1452 1457 1462 1465 1469 1469 1468 1469 1471 1474 1476 1478 1480 1482 1483 1485 1495 1500 1500 1497 1497 1491 1501 1481 1488 1483 1492 1488 1482 1467 1466 1467 1466 1464 1460 1457 1455
1311 1314 1320 1325 1331 1344 1355 1367 1376 1385 1394 1403 1412 1420 1429 1436 1442 1448 1453 1458 1462 1466 1467 1465 1464 1468 1470 1471 1475 1478 1480 1482 1483 1484 1488 1493 1498 1493 1495 1490 1482 1478 1476 1480 1479 1469 1467 1466 1463 1461 1460 1458 1454 1451
1301 1304 1309 1315 1321 1335 1348 1359 1369 1379 1389 1397 1407 1416 1424 1432 1439 1445 1450 1454 1460 1464 1465 1460 1459 1460 1463 1465 1468 1472 1478 1480 1482 1484 1486 1491 1495 1487 1488 1483 1482 1478 1476 1474 1473 1467 1463 1461 1460 1458 1455 1452 1449 1446
1289 1295 1300 1306 1313 1327 1340 1352 1363 1373 1384 1393 1403 1412 1421 1429 1436 1442 1448 1452 1456 1462 1461 1458 1458 1458 1459 1462 1465 1468 1472 1477 1480 1483 1485 1487 1485 1486 1481 1480 1470 1468 1467 1473 1470 1461 1462 1459 1456 1454 1453 1450 1447 1444
1279 1286 1291 1296 1306 1321 1334 1346 1357 1368 1379 1389 1399 1408 1417 1426 1431 1439 1447 1450 1452 1456 1461 1462 1456 1454 1456 1460 1463 1466 1469 1473 1476 1477 1480 1480 1480 1482 1486 1476 1458 1457 1457 1457 1459 1458 1457 1455 1454 1451 1450 1448 1445 1442
1267 1276 1282 1287 1300 1314 1328 1341 1353 1365 1376 1386 1397 1406 1415 1422 1429 1436 1440 1441 1448 1455 1459 1459 1454 1453 1455 1457 1461 1465 1467 1470 1472 1475 1476 1476 1476 1477 1477 1466 1450 1452 1453 1453 1453 1453 1452 1451 1450 1449 1447 1445 1441 1438
1260 1267 1275 1281 1294 1310 1323 1336 1350 1362 1373 1385 1395 1405 1414 1422 1430 1437 1437 1438 1446 1453 1456 1457 1454 1452 1453 1456 1460 1463 1465 1468 1470 1471 1473 1472 1474 1473 1470 1443 1445 1448 1449 1449 1448 1448 1449 1449 1448 1446 1444 1440 1436 1433
1254 1262 1270 1278 1292 1306 1320 1334 1347 1360 1372 1384 1395 1406 1415 1421 1428 1434 1437 1441 1446 1452 1451 1452 1451 1451 1450 1453 1457 1461 1462 1467 1467 1467 1467 1469 1468 1463 1439 1439 1441 1442 1445 1445 1446 1447 1447 1446 1445 1442 1439 1436 1433 1429
1250 1258 1265 1275 1291 1304 1318 1332 1346 1358 1371 1384 1394 1403 1409 1417 1426 1433 1439 1443 1447 1447 1447 1446 1443 1444 1447 1450 1455 1459 1460 1463 1464 1460 1460 1461 1452 1436 1431 1431 1436 1439 1440 1443 1443 1445 1445 1444 1442 1439 1436 1433 1431 1428
1246 1252 1263 1276 1290 1304 1318 1331 1344 1358 1369 1378 1388 1398 1406 1418 1426 1433 1436 1440 1442 1443 1438 1435 1435 1438 1443 1446 1451 1452 1454 1455 1457 1451 1454 1451 1441 1426 1422 1421 1427 1434 1438 1439 1439 1441 1442 1442 1439 1436 1433 1431 1428 1425
1240 1254 1266 1278 1291 1305 1317 1331 1342 1350 1362 1373 1381 1397 1407 1417 1423 1427 1431 1433 1433 1428 1424 1426 1429 1434 1438 1441 1443 1448 1447 1450 1445 1444 1447 1438 1428 1424 1421 1420 1425 1432 1435 1437 1438 1440 1440 1439 1437 1433 1430 1428 1425 1422
1245 1255 1268 1281 1294 1307 1319 1332 1341 1355 1364 1377 1388 1397 1401 1409 1413 1413 1416 1416 1417 1412 1412 1417 1425 1431 1436 1438 1441 1441 1443 1444 1438 1443 1435 1430 1427 1427 1424 1425 1428 1431 1435 1437 1439 1438 1438 1437 1433 1431 1428 1426 1422 1419
1249 1260 1273 1286 1298 1311 1323 1332 1345 1356 1365 1373 1381 1393 1392 1397 1395 1393 1393 1393 1397 1399 1404 1412 1418 1424 1429 1434 1435 1439 1436 1434 1439 1437 1426 1427 1427 1427 1427 1429 1431 1433 1435 1437 1437 1437 1436 1432 1430 1427 1425 1422 1419 1416
1258 1270 1281 1293 1304 1315 1325 1337 1348 1357 1362 1371 1375 1383 1384 1380 1382 1383 1387 1390 1393 1396 1403 1411 1416 1419 1424 1429 1429 1431 1430 1431 1421 1425 1423 1426 1427 1427 1428 1430 1433 1434 1435 1435 1435 1433 1431 1429 1427 1424 1422 1418 1416 1413
1268 1279 1289 1299 1309 1319 1330 1340 1350 1359 1364 1369 1372 1375 1376 1379 1381 1383 1385 1388 1391 1396 1404 1409 1413 1417 1419 1418 1422 1423 1419 1414 1417 1422 1425 1427 1428 1430 1430 1431 1432 1432 1432 1433 1432 1430 1428 1426 1423 1420 1418 1416 1412 1409
1276 1283 1294 1304 1315 1324 1333 1342 1353 1361 1367 1369 1372 1374 1375 1376 1379 1382 1385 1388 1392 1397 1400 1403 1403 1405 1408 1410 1410 1411 1414 1415 1418 1421 1424 1426 1428 1430 1431 1431 1431 1431 1430 1429 1427 1426 1424 1422 1419 1416 1413 1411 1408 1406
1282 1292 1301 1309 1317 1328 1339 1347 1355 1361 1367 1371 1373 1374 1375 1376 1379 1383 1386 1390 1393 1395 1398 1400 1402 1401 1404 1401 1407 1411 1412 1415 1418 1421 1424 1426 1427 1428 1429 1429 1429 1428 1426 1425 1423 1422 1420 1418 1415 1411 1408 1406 1404 1402
1290 1298 1307 1316 1324 1333 1345 1355 1360 1366 1369 1371 1373 1376 1378 1380 1383 1385 1387 1389 1392 1393 1396 1400 1402 1401 1403 1404 1405 1408 1412 1414 1417 1421 1423 1424 1425 1426 1426 1426 1425 1424 1422 1421 1419 1418 1416 1414 1412 1409 1405 1402 1399 1397
1302 1309 1317 1326 1334 1340 1351 1360 1363 1365 1368 1372 1374 1377 1380 1382 1385 1386 1388 1390 1392 1394 1396 1398 1402 1402 1401 1403 1406 1408 1411 1414 1417 1419 1420 1422 1423 1423 1423 1422 1421 1420 1419 1417 1415 1413 1410 1408 1406 1403 1401 1398 1395 1392
1311 1318 1325 1332 1340 1346 1353 1358 1362 1366 1369 1371 1375 1378 1381 1383 1384 1386 1388 1390 1393 1396 1396 1397 1399 1401 1403 1405 1406 1408 1410 1412 1414 1417 1418 1419 1419 1419 1419 1418 1416 1415 1413 1411 1409 1407 1405 1403 1401 1398 1396 1392 1390 1387
1320 1329 1334 1340 1345 1351 1355 1358 1361 1367 1370 1372 1375 1378 1381 1383 1384 1386 1388 1390 1391 1393 1394 1396 1399 1400 1401 1404 1406 1408 1410 1412 1413 1414 1415 1415 1415 1415 1414 1412 1411 1409 1407 1406 1404 1402 1399 1398 1395 1393 1391 1387 1385 1382
1328 1335 1341 1347 1352 1356 1363 1362 1365 1368 1372 1374 1376 1378 1380 1381 1383 1385 1386 1386 1388 1389 1391 1394 1396 1399 1400 1403 1404 1406 1408 1409 1410 1411 1411 1411 1411 1410 1409 1408 1406 1403 1401 1400 1399 1397 1395 1392 1390 1387 1384 1382 1380 1378
1339 1344 1349 1353 1357 1361 1363 1364 1365 1368 1371 1373 1376 1378 1379 1379 1382 1383 1385 1385 1387 1388 1390 1393 1395 1397 1400 1402 1403 1404 1406 1407 1407 1408 1408 1408 1407 1405 1404 1402 1400 1399 1398 1395 1393 1391 1389 1387 1384 1382 1380 1377 1375 1373
1344 1353 1355 1357 1358 1361 1364 1365 1366 1369 1374 1373 1375 1378 1377 1378 1383 1385 1385 1386 1387 1389 1391 1393 1396 1398 1399 1401 1402 1403 1403 1404 1404 1404 1403 1402 1400 1399 1397 1396 1394 1393 1391 1388 1387 1385 1382 1380 1378 1375 1373 1372 1370 1368
1349 1352 1354 1354 1357 1360 1362 1367 1370 1372 1374 1377 1376 1376 1376 1381 1389 1391 1387 1388 1389 1390 1392 1393 1394 1396 1398 1399 1400 1401 1401 1401 1401 1400 1399 1397 1395 1394 1392 1390 1387 1385 1385 1383 1381 1378 1375 1373 1369 1366 1364 1363 1363 1362
1351 1353 1352 1351 1352 1355 1360 1363 1366 1370 1377 1380 1376 1378 1382 1393 1397 1389 1388 1388 1390 1392 1393 1394 1395 1396 1397 1398 1398 1398 1398 1397 1396 1395 1393 1391 1390 1388 1387 1384 1381 1379 1377 1375 1372 1370 1367 1362 1359 1357 1355 1354 1354 1355
1348 1350 1352 1352 1354 1356 1361 1366 1370 1373 1372 1370 1372 1381 1385 1389 1389 1387 1388 1389 1391 1392 1393 1394 1394 1395 1396 1396 1396 1395 1394 1392 1390 1389 1386 1385 1383 1381 1380 1377 1375 1371 1368 1365 1362 1359 1356 1352 1349 1347 1346 1346 1345 1348
1349 1351 1353 1356 1357 1360 1362 1365 1366 1366 1368 1368 1374 1381 1381 1383 1385 1386 1388 1389 1390 1391 1392 1393 1393 1394 1394 1393 1392 1391 1390 1388 1385 1382 1378 1375 1372 1371 1370 1366 1362 1359 1356 1352 1349 1347 1344 1341 1339 1338 1337 1338 1340 1342
1352 1353 1356 1359 1363 1366 1366 1366 1367 1368 1369 1370 1373 1378 1381 1384 1386 1387 1388 1389 1390 1391 1392 1392 1391 1391 1390 1389 1388 1386 1386 1384 1381 1380 1375 1370 1365 1362 1359 1355 1351 1348 1344 1340 1336 1333 1332 1331 1330 1330 1331 1332 1334 1337
1353 1355 1358 1360 1363 1365 1367 1368 1369 1370 1372 1373 1375 1378 1380 1383 1386 1387 1388 1389 1389 1389 1389 1389 1389 1388 1387 1385 1383 1380 1377 1377 1375 1373 1370 1365 1360 1355 1350 1345 1340 1335 1331 1327 1324 1321 1321 1321 1322 1324 1326 1328 1330 1333
1357 1358 1360 1366 1367 1368 1369 1370 1371 1372 1374 1375 1376 1378 1381 1382 1385 1386 1387 1387 1387 1387 1387 1387 1386 1385 1384 1381 1379 1377 1375 1371 1368 1365 1361 1356 1350 1345 1339 1333 1327 1322 1316 1313 1310 1310 1311 1313 1315 1318 1321 1324 1327 1331
1361 1362 1363 1365 1368 1369 1371 1372 1372 1373 1374 1375 1376 1377 1378 1380 1382 1385 1384 1385 1386 1385 1385 1384 1383 1381 1379 1377 1375 1373 1370 1367 1364 1360 1356 1350 1344 1337 1330 1323 1316 1309 1304 1300 1299 1300 1302 1306 1310 1314 1317 1321 1326 1330